Stations météo

Publicité
Le Luc, France (7675): Température de l'air & dewpoint: 18.01.2021 06:00:00 - 24.01.2021 06:00:00 (CET)Le Luc, France (7675): Température de l'air 5cm: 18.01.2021 06:00:00 - 24.01.2021 06:00:00 (CET)Le Luc, France (7675): Vitesse du vent & gusts: 18.01.2021 06:00:00 - 24.01.2021 06:00:00 (CET)Le Luc, France (7675): Direction du vent: 18.01.2021 06:00:00 - 24.01.2021 06:00:00 (CET)Le Luc, France (7675): reduced air pressure: 18.01.2021 06:00:00 - 24.01.2021 06:00:00 (CET)Le Luc, France (7675): visibility: 18.01.2021 06:00:00 - 24.01.2021 06:00:00 (CET)Le Luc, France (7675): Ensoleillement: 18.01.2021 06:00:00 - 24.01.2021 06:00:00 (CET)Le Luc, France (7675): Quantités de précipitations: 18.01.2021 06:00:00 - 24.01.2021 06:00:00 (CET)
Date & Time tt [°C] td [°C] tt 5cm [°C] ff [km/h] ff [knt] fx [km/h] fx [knt] dd ppp [hPa] vv [km] sd [min] rr [mm]
24.01.2021 06:00:00 6,7 2,9 6,1 26 14 40 21 W 996,0 20 0 0,0
24.01.2021 05:00:00 6,9 3,1 6,4 4 2 13 7 SSW 996,5 20 0 0,0
24.01.2021 04:00:00 7,4 2,9 6,6 5 3 28 15 SW 997,3 20 0 0,0
24.01.2021 03:00:00 7,4 3,8 5,8 18 10 33 18 WSW 997,9 20 0 0,0
24.01.2021 02:00:00 7,6 2,9 6,2 6 3 19 10 WSW 998,0 20 0 0,0
24.01.2021 01:00:00 8,2 3,2 7,1 3 1 18 10 SW 998,9 20 0 0,0
24.01.2021 00:00:00 8,2 4,2 6,5 2 1 11 6 WSW 1000,3 20 0 0,0
23.01.2021 23:00:00 7,8 4,6 6,6 0 0 7 4 N 1000,9 20 0 0,0
23.01.2021 22:00:00 8,4 4,6 7,1 0 0 11 6 N 1001,0 20 0 0,0
23.01.2021 21:00:00 8,4 4,8 7,0 0 0 18 10 N 1001,6 20 0 0,0
23.01.2021 20:00:00 8,2 5,0 7,2 10 5 17 9 NNW 1001,6 20 0 0,0
23.01.2021 19:00:00 8,1 5,2 6,0 0 0 10 5 N 1001,4 20 0 0,0
23.01.2021 18:00:00 8,0 5,3 7,1 0 0 23 13 N 1001,2 20 10 0,0
23.01.2021 17:00:00 9,4 4,8 9,1 13 7 27 15 NW 1001,1 20 20 0,0
23.01.2021 16:00:00 11,2 4,2 11,4 19 10 43 23 W 1001,4 20 0 0,0
23.01.2021 15:00:00 11,6 3,4 12,6 31 17 49 26 W 1002,1 20 30 0,0
23.01.2021 14:00:00 11,8 1,7 12,0 30 16 51 28 W 1002,5 20 29 0,0
23.01.2021 13:00:00 11,4 0,8 12,7 33 18 59 32 W 1002,6 20 55 0,0
23.01.2021 12:00:00 11,3 0,7 13,9 19 11 50 27 W 1003,2 20 60 0,0
23.01.2021 11:00:00 10,1 0,7 11,9 29 16 54 29 W 1003,2 20 60 0,0
23.01.2021 10:00:00 9,1 0,0 8,8 35 19 67 36 W 1002,2 20 60 0,0
23.01.2021 09:00:00 7,7 -0,1 6,0 46 25 70 38 W 1001,8 20 38 0,0
23.01.2021 08:00:00 7,1 -0,6 6,1 38 20 74 40 W 1001,2 20 0 0,0
23.01.2021 07:00:00 7,6 -1,1 6,5 46 25 71 39 W 1000,3 20 0 0,0
23.01.2021 06:00:00 8,1 -1,7 6,6 42 23 70 38 W 1000,2 20 0 0,0
23.01.2021 05:00:00 7,8 -2,0 6,6 32 18 69 37 W 1000,1 20 0 0,0
23.01.2021 04:00:00 7,7 -1,5 6,7 38 21 86 47 WNW 999,6 20 0 0,0
23.01.2021 03:00:00 7,6 -1,4 6,5 64 35 96 52 WNW 997,2 20 0 0,0
23.01.2021 02:00:00 7,6 -1,6 6,4 41 22 81 44 W 997,3 20 0 0,0
23.01.2021 01:00:00 7,5 -1,2 6,6 39 21 88 48 W 996,4 20 0 0,0
23.01.2021 00:00:00 7,9 -0,3 6,9 45 24 87 47 W 995,5 20 0 0,0
22.01.2021 23:00:00 8,3 1,0 7,4 47 26 77 42 W 994,4 20 0 0,0
22.01.2021 22:00:00 9,1 4,3 8,3 41 22 84 46 W 993,0 20 0 0,0
22.01.2021 21:00:00 10,0 6,2 8,0 35 19 66 36 W 991,7 20 0 0,0
22.01.2021 20:00:00 9,8 6,9 7,9 33 18 59 32 W 991,7 20 0 0,4
22.01.2021 19:00:00 9,7 6,8 8,0 27 15 56 30 W 991,9 20 0 0,2
22.01.2021 18:00:00 10,5 7,2 9,1 29 16 53 29 W 991,4 20 0 0,0
22.01.2021 17:00:00 12,2 8,8 10,7 21 11 35 19 WSW 990,7 20 0 0,0
22.01.2021 16:00:00 13,5 11,4 12,8 6 3 27 14 S 990,9 14 18 0,0
22.01.2021 15:00:00 13,1 11,8 12,1 8 4 26 14 S 992,2 8 0 0,2
22.01.2021 14:00:00 12,4 11,8 11,6 5 3 14 8 ENE 993,8 11 0 2,0
22.01.2021 13:00:00 12,3 11,7 11,6 8 4 13 7 NE 996,3 6 0 2,6
22.01.2021 12:00:00 12,1 11,6 11,5 6 3 11 6 ENE 999,3 4,8 0 0,6
22.01.2021 11:00:00 11,8 11,3 10,9 9 5 24 13 ENE 1001,0 8 0 0,0
22.01.2021 10:00:00 11,2 10,6 10,3 13 7 22 12 NE 1001,6 11 0 0,0
22.01.2021 09:00:00 10,6 10,3 9,3 11 6 18 10 NE 1002,4 9 0 0,0
22.01.2021 08:00:00 9,5 9,4 8,0 4 2 13 7 E 1003,1 5 0 0,0
22.01.2021 07:00:00 8,4 8,1 7,4 2 1 6 4 NE 1003,8 0,2 0 0,0
22.01.2021 06:00:00 8,5 8,2 7,8 0 0 6 4 N 1004,4 0,3 0 0,0
22.01.2021 05:00:00 8,6 8,3 7,6 0 0 5 3 N 1005,4 2,5 0 0,0
22.01.2021 04:00:00 8,4 8,0 7,5 0 0 8 5 N 1006,2 2,2 0 0,0
22.01.2021 03:00:00 8,7 8,2 7,2 2 1 9 5 S 1006,8 4,5 0 0,0
22.01.2021 02:00:00 8,9 8,4 7,6 3 1 4 2 WNW 1007,2 5 0 0,0
22.01.2021 01:00:00 9,0 8,5 6,5 0 0 5 3 N 1007,8 8 0 0,0
22.01.2021 00:00:00 9,4 8,8 7,5 4 2 6 3 WNW 1008,5 8 0 0,0
21.01.2021 23:00:00 10,0 9,2 9,2 6 4 16 9 NNW 1008,8 15 0 0,2
21.01.2021 22:00:00 10,1 9,2 9,2 13 7 19 10 ENE 1009,3 14 0 0,2
21.01.2021 21:00:00 9,9 9,0 8,9 14 7 19 11 ENE 1009,7 18 0 0,0
21.01.2021 20:00:00 10,1 8,7 9,7 13 7 22 12 NE 1010,4 20 0 0,0
21.01.2021 19:00:00 10,4 9,0 9,6 13 7 18 10 NE 1010,8 20 0 0,0
21.01.2021 18:00:00 10,5 8,9 9,9 9 5 14 8 NE 1011,0 19 0 0,0
21.01.2021 17:00:00 10,7 8,8 10,0 11 6 18 10 ENE 1010,5 20 0 0,0
21.01.2021 16:00:00 11,0 9,1 10,4 10 5 23 12 ENE 1011,1 20 0 0,0
21.01.2021 15:00:00 11,1 9,2 10,3 9 5 19 10 ENE 1011,5 20 0 0,0
21.01.2021 14:00:00 11,2 9,5 10,9 8 4 14 8 ENE 1011,7 20 0 0,0
21.01.2021 13:00:00 11,0 9,4 10,2 7 4 14 8 E 1012,6 20 0 0,0
21.01.2021 12:00:00 10,3 8,9 9,8 8 4 11 6 NE 1013,4 20 0 0,0
21.01.2021 11:00:00 10,0 8,8 9,0 3 2 13 7 NE 1013,8 20 0 0,0
21.01.2021 10:00:00 9,3 8,4 8,4 6 3 9 5 ENE 1013,2 20 0 0,0
21.01.2021 09:00:00 9,1 8,2 8,0 6 4 14 8 NE 1012,6 20 0 0,0
21.01.2021 08:00:00 8,8 7,7 7,8 8 5 17 9 ENE 1012,5 20 0 0,0
21.01.2021 07:00:00 8,7 7,8 7,9 7 4 14 7 ENE 1012,2 20 0 0,0
21.01.2021 06:00:00 8,7 7,8 8,0 7 4 14 7 ENE 1012,3 20 0 0,0
21.01.2021 05:00:00 8,7 7,8 8,0 9 5 25 14 NE 1012,3 20 0 0,4
21.01.2021 04:00:00 8,9 8,1 8,4 12 7 19 11 NE 1012,2 6 0 1,8
21.01.2021 03:00:00 9,1 8,3 8,6 10 5 18 10 NE 1012,3 8 0 2,4
21.01.2021 02:00:00 9,5 8,4 8,8 3 2 29 16 N 1012,2 4,9 0 7,1
21.01.2021 01:00:00 10,9 8,6 8,9 18 10 32 18 E 1012,5 20 0 0,0
21.01.2021 00:00:00 10,7 7,9 9,0 4 2 18 10 ESE 1013,4 12 0 0,4
20.01.2021 23:00:00 11,0 6,9 9,7 4 2 32 17 NE 1014,1 20 0 0,0
20.01.2021 22:00:00 11,3 7,0 10,5 16 8 29 15 E 1014,4 20 0 0,0
20.01.2021 21:00:00 11,3 7,4 10,2 21 12 33 18 E 1014,7 20 0 0,0
20.01.2021 20:00:00 11,2 6,9 9,6 21 11 30 16 ESE 1015,3 20 0 0,0
20.01.2021 19:00:00 11,0 6,5 9,7 13 7 21 11 E 1016,1 20 0 0,0
20.01.2021 18:00:00 11,0 7,1 9,9 10 5 24 13 E 1015,8 20 0 0,0
20.01.2021 17:00:00 12,0 7,9 11,4 19 10 30 16 ESE 1016,1 20 0 0,0
20.01.2021 16:00:00 12,5 7,6 12,4 14 8 32 17 ESE 1016,3 20 0 0,0
20.01.2021 15:00:00 12,6 8,1 12,9 19 11 29 16 ESE 1016,9 20 0 0,0
20.01.2021 14:00:00 12,9 8,0 13,2 16 8 26 14 ESE 1017,5 20 11 0,0
20.01.2021 13:00:00 12,6 8,7 12,9 10 5 18 10 SE 1018,6 20 2 0,0
20.01.2021 12:00:00 12,2 8,8 10,2 8 4 14 8 E 1019,3 20 31 0,0
20.01.2021 11:00:00 8,1 7,7 7,6 0 0 10 5 N 1020,2 9 1 0,0
20.01.2021 10:00:00 6,5 6,1 5,7 0 0 16 9 N 1020,5 9 7 0,0
20.01.2021 09:00:00 5,4 5,1 4,9 0 0 6 4 N 1020,5 4,8 0 0,0
20.01.2021 08:00:00 5,2 4,9 4,5 0 0 6 3 N 1020,5 3,2 0 0,0
20.01.2021 07:00:00 4,8 4,5 4,1 0 0 7 4 N 1020,5 3,1 0 0,0
20.01.2021 06:00:00 4,9 4,5 3,1 0 0 10 5 N 1020,5 0,5 0 0,0
20.01.2021 05:00:00 5,2 4,6 3,5 0 0 8 4 N 1020,8 1,8 0 0,4
20.01.2021 04:00:00 5,7 5,0 5,0 2 1 6 3 NW 1021,1 3,7 0 0,8
20.01.2021 03:00:00 5,4 4,5 4,5 3 2 8 4 SSW 1021,4 11 0 0,0
20.01.2021 02:00:00 5,4 4,5 4,8 2 1 6 4 SE 1021,7 10 0 0,0
20.01.2021 01:00:00 5,5 4,5 5,0 0 0 6 3 N 1022,3 11 0 0,0
20.01.2021 00:00:00 5,9 4,7 5,1 2 1 7 4 W 1022,6 17 0 0,0
19.01.2021 23:00:00 5,6 4,2 4,9 3 2 8 4 SSW 1022,9 9 0 0,0
19.01.2021 22:00:00 5,1 3,3 4,9 3 2 8 5 NE 1023,0 20 0 0,0
19.01.2021 21:00:00 5,9 4,5 3,3 0 0 5 3 N 1023,0 18 0 0,0
19.01.2021 20:00:00 4,6 2,9 0,9 2 1 10 6 NNW 1023,0 19 0 0,0
19.01.2021 19:00:00 6,4 3,7 1,6 0 0 8 4 N 1022,9 19 0 0,0
19.01.2021 18:00:00 8,0 3,6 5,4 5 3 11 6 WNW 1022,7 20 0 0,0
19.01.2021 17:00:00 11,6 5,0 10,5 9 5 26 14 WSW 1022,4 20 44 0,0
19.01.2021 16:00:00 13,2 4,6 16,1 12 7 25 14 SW 1022,4 20 60 0,0
19.01.2021 15:00:00 13,9 1,8 18,2 9 5 16 9 SW 1022,5 20 60 0,0
19.01.2021 14:00:00 12,2 2,9 17,4 4 2 10 5 E 1023,3 20 60 0,0
19.01.2021 13:00:00 10,4 1,2 15,0 4 2 9 5 E 1024,4 20 60 0,0
19.01.2021 12:00:00 8,0 -0,3 12,3 2 1 6 3 WNW 1025,6 20 60 0,0
19.01.2021 11:00:00 4,5 -0,9 6,0 0 0 4 2 N 1026,4 20 60 0,0
19.01.2021 10:00:00 1,6 -1,8 -0,1 3 1 4 2 E 1026,5 20 60 0,0
19.01.2021 09:00:00 -1,4 -3,1 -6,3 0 0 5 3 N 1026,3 20 35 0,0
19.01.2021 08:00:00 -3,4 -4,7 -6,6 0 0 3 2 N 1026,3 20 0 0,0
19.01.2021 07:00:00 -3,3 -4,6 -6,6 0 0 3 2 N 1026,3 20 0 0,0
19.01.2021 06:00:00 -3,2 -4,3 -6,4 0 0 3 2 N 1026,1 20 0 0,0
19.01.2021 05:00:00 -2,7 -4,3 -5,6 0 0 6 3 N 1025,9 20 0 0,0
19.01.2021 04:00:00 -2,4 -3,5 -5,7 0 0 5 3 N 1026,1 20 0 0,0
19.01.2021 03:00:00 -1,8 -2,8 -5,1 0 0 5 3 N 1026,4 20 0 0,0
19.01.2021 02:00:00 -1,7 -2,8 -4,1 3 1 7 4 SW 1026,2 20 0 0,0
19.01.2021 01:00:00 -1,6 -2,7 -4,0 3 2 6 3 NW 1026,4 20 0 0,0
19.01.2021 00:00:00 -0,2 -1,3 -3,2 4 2 6 3 WNW 1026,3 18 0 0,0
18.01.2021 23:00:00 -0,2 -1,9 -2,3 0 0 6 3 N 1026,3 20 0 0,0
18.01.2021 22:00:00 0,7 -0,9 -2,2 0 0 5 3 N 1025,9 20 0 0,0
18.01.2021 21:00:00 2,3 0,4 -0,6 0 0 10 5 N 1025,6 20 0 0,0
18.01.2021 20:00:00 3,9 0,6 0,6 0 0 5 3 N 1025,2 20 0 0,0
18.01.2021 19:00:00 5,5 1,6 0,6 0 0 7 4 N 1024,6 20 0 0,0
18.01.2021 18:00:00 8,7 3,1 4,5 3 2 6 3 WSW 1024,1 20 3 0,0
18.01.2021 17:00:00 12,5 2,1 12,7 3 1 6 4 SE 1023,2 20 60 0,0
18.01.2021 16:00:00 13,0 0,7 16,1 4 2 10 5 WNW 1022,9 20 55 0,0
18.01.2021 15:00:00 12,4 -0,2 16,9 4 2 12 7 NNE 1022,8 20 56 0,0
18.01.2021 14:00:00 12,7 -0,2 18,5 3 2 11 6 W 1022,7 20 60 0,0
18.01.2021 13:00:00 10,9 -2,9 17,1 5 3 10 5 WNW 1023,1 20 60 0,0
18.01.2021 12:00:00 9,9 -3,1 15,4 2 1 16 9 WSW 1023,6 20 60 0,0
18.01.2021 11:00:00 9,1 -2,8 11,8 0 0 10 6 N 1023,7 20 60 0,0
18.01.2021 10:00:00 6,4 -3,0 6,1 5 3 16 9 SW 1023,5 20 60 0,0
18.01.2021 09:00:00 4,3 -3,5 1,0 9 5 18 10 WSW 1022,9 20 34 0,0
18.01.2021 08:00:00 3,1 -3,5 0,8 8 4 19 10 SW 1022,5 20 0 0,0
18.01.2021 07:00:00 3,8 -3,5 2,1 14 8 21 11 WSW 1022,5 20 0 0,0
18.01.2021 06:00:00 4,5 -3,5 1,8 10 5 22 12 SW 1022,0 20 0 0,0

tt = Température de l'air
td = dewpoint
tt 5cm = Température de l'air 5cm
ff = Vitesse du vent
fx = gusts
dd = Direction du vent
ppp = reduced air pressure
vv = visibility
sd = Ensoleillement
rr = Quantités de précipitations

stations d'obs. à proximité